owner,sensor,date,latitude,longitude,vertical_datum,wind_speed,wind_to_direction,wind_speed_of_gust,qcFlag 
TCOON,ioos:station:TCOON:146:1,2015-05-01T01:30:00Z,28.1324,-97.0345,0.0,4.0,239.0,5.0,'1111122,1111122,1111122' 
TCOON,ioos:station:TCOON:146:1,2015-05-01T02:30:00Z,28.1324,-97.0345,0.0,4.2,239.0,5.0,'1111122,1111122,1111122' 
TCOON,ioos:station:TCOON:146:1,2015-05-01T03:30:00Z,28.1324,-97.0345,0.0,4.1,239.0,5.0,'1111122,1111122,1111122' 
TCOON,ioos:station:TCOON:146:1,2015-05-01T04:30:00Z,28.1324,-97.0345,0.0,4.1,229.0,5.1,'1111122,1111122,1111122' 
TCOON,ioos:station:TCOON:146:1,2015-05-01T05:30:00Z,28.1324,-97.0345,0.0,4.2,233.0,5.1,'1111122,1111122,1111122' 
TCOON,ioos:station:TCOON:146:1,2015-05-01T06:30:00Z,28.1324,-97.0345,0.0,3.9,249.0,5.0,'1111122,1111122,1111122' 
TCOON,ioos:station:TCOON:146:1,2015-05-01T07:30:00Z,28.1324,-97.0345,0.0,2.5,276.0,3.1,'1111122,1111122,1111122' 
TCOON,ioos:station:TCOON:146:1,2015-05-01T08:30:00Z,28.1324,-97.0345,0.0,3.4,269.0,4.2,'1111122,1111122,1111122' 
TCOON,ioos:station:TCOON:146:1,2015-05-01T09:30:00Z,28.1324,-97.0345,0.0,3.6,274.0,4.4,'1111122,1111122,1111122' 
TCOON,ioos:station:TCOON:146:1,2015-05-01T10:30:00Z,28.1324,-97.0345,0.0,4.1,266.0,4.9,'1111122,1111122,1111122' 
TCOON,ioos:station:TCOON:146:1,2015-05-01T11:30:00Z,28.1324,-97.0345,0.0,3.6,275.0,4.2,'1111122,1111122,1111122' 
TCOON,ioos:station:TCOON:146:1,2015-05-01T12:30:00Z,28.1324,-97.0345,0.0,2.5,289.0,3.0,'1111122,1111122,1111122' 
TCOON,ioos:station:TCOON:146:1,2015-05-01T14:30:00Z,28.1324,-97.0345,0.0,1.6,23.0,2.1,'1111122,1111122,1111122' 
TCOON,ioos:station:TCOON:146:1,2015-05-01T15:30:00Z,28.1324,-97.0345,0.0,1.6,7.0,2.1,'1111122,1111122,1111122' 
TCOON,ioos:station:TCOON:146:1,2015-05-01T17:30:00Z,28.1324,-97.0345,0.0,1.2,246.0,2.2,'1111122,1111122,1111122' 
TCOON,ioos:station:TCOON:146:1,2015-05-01T18:30:00Z,28.1324,-97.0345,0.0,3.0,221.0,3.8,'1111122,1111122,1111122' 
TCOON,ioos:station:TCOON:146:1,2015-05-01T20:30:00Z,28.1324,-97.0345,0.0,4.0,208.0,4.9,'1111122,1111122,1111122' 
TCOON,ioos:station:TCOON:146:1,2015-05-01T23:30:00Z,28.1324,-97.0345,0.0,3.7,209.0,4.6,'1111122,1111122,1111122' 
TCOON,ioos:station:TCOON:146:1,2015-05-02T01:30:00Z,28.1324,-97.0345,0.0,3.8,217.0,4.6,'1111122,1111122,1111122' 
TCOON,ioos:station:TCOON:146:1,2015-05-02T02:30:00Z,28.1324,-97.0345,0.0,4.0,220.0,4.9,'1111122,1111122,1111122' 
TCOON,ioos:station:TCOON:146:1,2015-05-02T04:30:00Z,28.1324,-97.0345,0.0,4.1,227.0,5.0,'1111122,1111122,1111122' 
TCOON,ioos:station:TCOON:146:1,2015-05-02T05:30:00Z,28.1324,-97.0345,0.0,4.1,224.0,5.0,'1111122,1111122,1111122' 
TCOON,ioos:station:TCOON:146:1,2015-05-02T06:30:00Z,28.1324,-97.0345,0.0,4.1,230.0,5.0,'1111122,1111122,1111122' 
TCOON,ioos:station:TCOON:146:1,2015-05-02T07:30:00Z,28.1324,-97.0345,0.0,4.1,233.0,5.0,'1111122,1111122,1111122' 
TCOON,ioos:station:TCOON:146:1,2015-05-02T08:30:00Z,28.1324,-97.0345,0.0,3.5,256.0,4.8,'1111122,1111122,1111122' 
TCOON,ioos:station:TCOON:146:1,2015-05-02T09:30:00Z,28.1324,-97.0345,0.0,2.7,288.0,3.6,'1111122,1111122,1111122' 
TCOON,ioos:station:TCOON:146:1,2015-05-02T10:30:00Z,28.1324,-97.0345,0.0,2.7,282.0,3.3,'1111122,1111122,1111122' 
TCOON,ioos:station:TCOON:146:1,2015-05-02T12:30:00Z,28.1324,-97.0345,0.0,2.5,80.0,3.4,'1111122,1111122,1111122' 
TCOON,ioos:station:TCOON:146:1,2015-05-02T14:30:00Z,28.1324,-97.0345,0.0,1.9,74.0,2.4,'1111122,1111122,1111122' 
TCOON,ioos:station:TCOON:146:1,2015-05-02T16:30:00Z,28.1324,-97.0345,0.0,4.3,214.0,5.0,'1111122,1111122,1111122' 
TCOON,ioos:station:TCOON:146:1,2015-05-02T18:30:00Z,28.1324,-97.0345,0.0,4.2,206.0,4.9,'1111122,1111122,1111122' 
TCOON,ioos:station:TCOON:146:1,2015-05-02T20:30:00Z,28.1324,-97.0345,0.0,4.0,204.0,4.9,'1111122,1111122,1111122' 
TCOON,ioos:station:TCOON:146:1,2015-05-02T21:30:00Z,28.1324,-97.0345,0.0,4.1,206.0,4.8,'1111122,1111122,1111122' 
TCOON,ioos:station:TCOON:146:1,2015-05-03T01:30:00Z,28.1324,-97.0345,0.0,4.6,195.0,5.6,'1111122,1111122,1111122' 
TCOON,ioos:station:TCOON:146:1,2015-05-03T02:30:00Z,28.1324,-97.0345,0.0,4.8,201.0,5.9,'1111122,1111122,1111122' 
TCOON,ioos:station:TCOON:146:1,2015-05-03T03:30:00Z,28.1324,-97.0345,0.0,4.9,206.0,5.6,'1111122,1111122,1111122' 
TCOON,ioos:station:TCOON:146:1,2015-05-03T04:30:00Z,28.1324,-97.0345,0.0,5.2,217.0,6.2,'1111122,1111122,1111122' 
TCOON,ioos:station:TCOON:146:1,2015-05-03T05:30:00Z,28.1324,-97.0345,0.0,4.9,218.0,6.2,'1111122,1111122,1111122' 
TCOON,ioos:station:TCOON:146:1,2015-05-03T08:30:00Z,28.1324,-97.0345,0.0,4.1,225.0,5.1,'1111122,1111122,1111122' 
TCOON,ioos:station:TCOON:146:1,2015-05-03T09:30:00Z,28.1324,-97.0345,0.0,4.4,226.0,5.1,'1111122,1111122,1111122' 
TCOON,ioos:station:TCOON:146:1,2015-05-03T10:30:00Z,28.1324,-97.0345,0.0,4.0,220.0,4.7,'1111122,1111122,1111122' 
TCOON,ioos:station:TCOON:146:1,2015-05-03T11:30:00Z,28.1324,-97.0345,0.0,4.5,219.0,5.1,'1111122,1111122,1111122' 
TCOON,ioos:station:TCOON:146:1,2015-05-03T12:30:00Z,28.1324,-97.0345,0.0,4.3,221.0,5.0,'1111122,1111122,1111122' 
TCOON,ioos:station:TCOON:146:1,2015-05-03T13:30:00Z,28.1324,-97.0345,0.0,4.1,217.0,4.8,'1111122,1111122,1111122' 
TCOON,ioos:station:TCOON:146:1,2015-05-03T14:30:00Z,28.1324,-97.0345,0.0,4.4,213.0,5.1,'1111122,1111122,1111122' 
TCOON,ioos:station:TCOON:146:1,2015-05-03T15:30:00Z,28.1324,-97.0345,0.0,4.3,208.0,5.4,'1111122,1111122,1111122' 
TCOON,ioos:station:TCOON:146:1,2015-05-03T16:30:00Z,28.1324,-97.0345,0.0,4.5,207.0,5.5,'1111122,1111122,1111122' 
TCOON,ioos:station:TCOON:146:1,2015-05-03T19:30:00Z,28.1324,-97.0345,0.0,4.2,200.0,5.6,'1111122,1111122,1111122' 
TCOON,ioos:station:TCOON:146:1,2015-05-03T20:30:00Z,28.1324,-97.0345,0.0,4.1,195.0,5.1,'1111122,1111122,1111122' 
TCOON,ioos:station:TCOON:146:1,2015-05-03T21:30:00Z,28.1324,-97.0345,0.0,4.7,201.0,5.7,'1111122,1111122,1111122' 
TCOON,ioos:station:TCOON:146:1,2015-05-03T22:30:00Z,28.1324,-97.0345,0.0,5.3,203.0,6.5,'1111122,1111122,1111122' 
TCOON,ioos:station:TCOON:146:1,2015-05-04T01:30:00Z,28.1324,-97.0345,0.0,5.7,204.0,7.5,'1111122,1111122,1111122' 
TCOON,ioos:station:TCOON:146:1,2015-05-04T02:30:00Z,28.1324,-97.0345,0.0,5.8,203.0,6.8,'1111122,1111122,1111122' 
TCOON,ioos:station:TCOON:146:1,2015-05-04T03:30:00Z,28.1324,-97.0345,0.0,5.3,200.0,6.4,'1111122,1111122,1111122' 
TCOON,ioos:station:TCOON:146:1,2015-05-04T04:30:00Z,28.1324,-97.0345,0.0,4.7,199.0,6.4,'1111122,1111122,1111122' 
TCOON,ioos:station:TCOON:146:1,2015-05-04T05:30:00Z,28.1324,-97.0345,0.0,5.2,205.0,6.4,'1111122,1111122,1111122' 
TCOON,ioos:station:TCOON:146:1,2015-05-04T06:30:00Z,28.1324,-97.0345,0.0,4.9,206.0,6.2,'1111122,1111122,1111122' 
TCOON,ioos:station:TCOON:146:1,2015-05-04T07:30:00Z,28.1324,-97.0345,0.0,4.9,209.0,6.3,'1111122,1111122,1111122' 
TCOON,ioos:station:TCOON:146:1,2015-05-04T08:30:00Z,28.1324,-97.0345,0.0,5.2,214.0,6.5,'1111122,1111122,1111122' 
TCOON,ioos:station:TCOON:146:1,2015-05-04T09:30:00Z,28.1324,-97.0345,0.0,5.3,217.0,6.6,'1111122,1111122,1111122' 
TCOON,ioos:station:TCOON:146:1,2015-05-04T10:30:00Z,28.1324,-97.0345,0.0,4.6,210.0,5.6,'1111122,1111122,1111122' 
TCOON,ioos:station:TCOON:146:1,2015-05-04T11:30:00Z,28.1324,-97.0345,0.0,4.4,208.0,5.7,'1111122,1111122,1111122' 
TCOON,ioos:station:TCOON:146:1,2015-05-04T13:30:00Z,28.1324,-97.0345,0.0,4.8,205.0,5.7,'1111122,1111122,1111122' 
TCOON,ioos:station:TCOON:146:1,2015-05-04T16:30:00Z,28.1324,-97.0345,0.0,4.6,190.0,5.7,'1111122,1111122,1111122' 
TCOON,ioos:station:TCOON:146:1,2015-05-04T17:30:00Z,28.1324,-97.0345,0.0,4.7,189.0,5.9,'1111122,1111122,1111122' 
TCOON,ioos:station:TCOON:146:1,2015-05-04T18:30:00Z,28.1324,-97.0345,0.0,5.2,182.0,6.3,'1111122,1111122,1111122' 
TCOON,ioos:station:TCOON:146:1,2015-05-04T19:30:00Z,28.1324,-97.0345,0.0,5.1,185.0,6.2,'1111122,1111122,1111122' 
TCOON,ioos:station:TCOON:146:1,2015-05-05T00:30:00Z,28.1324,-97.0345,0.0,6.1,172.0,7.4,'1111122,1111122,1111122' 
TCOON,ioos:station:TCOON:146:1,2015-05-05T01:30:00Z,28.1324,-97.0345,0.0,6.1,173.0,7.2,'1111122,1111122,1111122' 
TCOON,ioos:station:TCOON:146:1,2015-05-05T02:30:00Z,28.1324,-97.0345,0.0,6.5,176.0,8.0,'1111122,1111122,1111122' 
TCOON,ioos:station:TCOON:146:1,2015-05-05T03:30:00Z,28.1324,-97.0345,0.0,5.5,182.0,7.2,'1111122,1111122,1111122' 
TCOON,ioos:station:TCOON:146:1,2015-05-05T04:30:00Z,28.1324,-97.0345,0.0,5.3,188.0,7.0,'1111122,1111122,1111122' 
TCOON,ioos:station:TCOON:146:1,2015-05-05T05:30:00Z,28.1324,-97.0345,0.0,5.1,193.0,6.5,'1111122,1111122,1111122' 
TCOON,ioos:station:TCOON:146:1,2015-05-05T06:30:00Z,28.1324,-97.0345,0.0,5.3,202.0,6.6,'1111122,1111122,1111122' 
TCOON,ioos:station:TCOON:146:1,2015-05-05T07:30:00Z,28.1324,-97.0345,0.0,5.3,208.0,6.3,'1111122,1111122,1111122' 
TCOON,ioos:station:TCOON:146:1,2015-05-05T08:30:00Z,28.1324,-97.0345,0.0,5.0,208.0,6.3,'1111122,1111122,1111122' 
TCOON,ioos:station:TCOON:146:1,2015-05-05T09:30:00Z,28.1324,-97.0345,0.0,5.5,203.0,6.7,'1111122,1111122,1111122' 
TCOON,ioos:station:TCOON:146:1,2015-05-05T10:30:00Z,28.1324,-97.0345,0.0,5.7,203.0,7.1,'1111122,1111122,1111122' 
TCOON,ioos:station:TCOON:146:1,2015-05-05T12:30:00Z,28.1324,-97.0345,0.0,5.2,202.0,6.3,'1111122,1111122,1111122' 
TCOON,ioos:station:TCOON:146:1,2015-05-05T13:30:00Z,28.1324,-97.0345,0.0,5.0,194.0,6.0,'1111122,1111122,1111122' 
TCOON,ioos:station:TCOON:146:1,2015-05-05T15:30:00Z,28.1324,-97.0345,0.0,4.7,196.0,6.3,'1111122,1111122,1111122' 
TCOON,ioos:station:TCOON:146:1,2015-05-05T16:30:00Z,28.1324,-97.0345,0.0,5.0,203.0,6.5,'1111122,1111122,1111122' 
TCOON,ioos:station:TCOON:146:1,2015-05-05T17:30:00Z,28.1324,-97.0345,0.0,5.0,205.0,6.2,'1111122,1111122,1111122' 
TCOON,ioos:station:TCOON:146:1,2015-05-05T19:30:00Z,28.1324,-97.0345,0.0,5.5,206.0,6.9,'1111122,1111122,1111122' 
TCOON,ioos:station:TCOON:146:1,2015-05-05T21:30:00Z,28.1324,-97.0345,0.0,5.4,198.0,6.9,'1111122,1111122,1111122' 
TCOON,ioos:station:TCOON:146:1,2015-05-05T22:30:00Z,28.1324,-97.0345,0.0,5.9,199.0,7.6,'1111122,1111122,1111122' 
TCOON,ioos:station:TCOON:146:1,2015-05-06T00:30:00Z,28.1324,-97.0345,0.0,6.2,198.0,7.8,'1111122,1111122,1111122' 
TCOON,ioos:station:TCOON:146:1,2015-05-06T01:30:00Z,28.1324,-97.0345,0.0,5.9,196.0,7.5,'1111122,1111122,1111122' 
TCOON,ioos:station:TCOON:146:1,2015-05-06T02:30:00Z,28.1324,-97.0345,0.0,6.0,198.0,7.6,'1111122,1111122,1111122' 
TCOON,ioos:station:TCOON:146:1,2015-05-06T03:30:00Z,28.1324,-97.0345,0.0,6.3,199.0,7.9,'1111122,1111122,1111122' 
TCOON,ioos:station:TCOON:146:1,2015-05-06T04:30:00Z,28.1324,-97.0345,0.0,6.2,200.0,8.4,'1111122,1111122,1111122' 
TCOON,ioos:station:TCOON:146:1,2015-05-06T05:30:00Z,28.1324,-97.0345,0.0,6.5,204.0,8.1,'1111122,1111122,1111122' 
TCOON,ioos:station:TCOON:146:1,2015-05-06T06:30:00Z,28.1324,-97.0345,0.0,6.4,206.0,7.9,'1111122,1111122,1111122' 
TCOON,ioos:station:TCOON:146:1,2015-05-06T07:30:00Z,28.1324,-97.0345,0.0,5.9,208.0,7.4,'1111122,1111122,1111122' 
TCOON,ioos:station:TCOON:146:1,2015-05-06T08:30:00Z,28.1324,-97.0345,0.0,6.4,210.0,7.9,'1111122,1111122,1111122' 
TCOON,ioos:station:TCOON:146:1,2015-05-06T09:30:00Z,28.1324,-97.0345,0.0,6.0,211.0,7.4,'1111122,1111122,1111122' 
TCOON,ioos:station:TCOON:146:1,2015-05-06T12:30:00Z,28.1324,-97.0345,0.0,5.7,217.0,6.6,'1111122,1111122,1111122' 
TCOON,ioos:station:TCOON:146:1,2015-05-06T13:30:00Z,28.1324,-97.0345,0.0,5.6,224.0,6.8,'1111122,1111122,1111122' 
TCOON,ioos:station:TCOON:146:1,2015-05-06T14:30:00Z,28.1324,-97.0345,0.0,5.6,217.0,7.0,'1111122,1111122,1111122' 
TCOON,ioos:station:TCOON:146:1,2015-05-06T15:30:00Z,28.1324,-97.0345,0.0,5.3,217.0,6.4,'1111122,1111122,1111122' 
TCOON,ioos:station:TCOON:146:1,2015-05-06T16:30:00Z,28.1324,-97.0345,0.0,4.9,216.0,5.9,'1111122,1111122,1111122' 
TCOON,ioos:station:TCOON:146:1,2015-05-06T18:30:00Z,28.1324,-97.0345,0.0,4.8,227.0,5.9,'1111122,1111122,1111122' 
TCOON,ioos:station:TCOON:146:1,2015-05-06T19:30:00Z,28.1324,-97.0345,0.0,4.8,222.0,5.9,'1111122,1111122,1111122' 
TCOON,ioos:station:TCOON:146:1,2015-05-06T21:30:00Z,28.1324,-97.0345,0.0,4.5,209.0,5.4,'1111122,1111122,1111122' 
TCOON,ioos:station:TCOON:146:1,2015-05-06T22:30:00Z,28.1324,-97.0345,0.0,4.3,205.0,6.1,'1111122,1111122,1111122' 
TCOON,ioos:station:TCOON:146:1,2015-05-07T01:30:00Z,28.1324,-97.0345,0.0,5.4,180.0,6.5,'1111122,1111122,1111122' 
TCOON,ioos:station:TCOON:146:1,2015-05-07T02:30:00Z,28.1324,-97.0345,0.0,5.9,187.0,7.4,'1111122,1111122,1111122' 
TCOON,ioos:station:TCOON:146:1,2015-05-07T03:30:00Z,28.1324,-97.0345,0.0,5.8,191.0,7.6,'1111122,1111122,1111122' 
TCOON,ioos:station:TCOON:146:1,2015-05-07T04:30:00Z,28.1324,-97.0345,0.0,5.5,201.0,6.9,'1111122,1111122,1111122' 
TCOON,ioos:station:TCOON:146:1,2015-05-07T05:30:00Z,28.1324,-97.0345,0.0,5.2,202.0,6.4,'1111122,1111122,1111122' 
TCOON,ioos:station:TCOON:146:1,2015-05-07T06:30:00Z,28.1324,-97.0345,0.0,4.8,202.0,6.3,'1111122,1111122,1111122' 
TCOON,ioos:station:TCOON:146:1,2015-05-07T08:30:00Z,28.1324,-97.0345,0.0,5.2,208.0,6.8,'1111122,1111122,1111122' 
TCOON,ioos:station:TCOON:146:1,2015-05-07T09:30:00Z,28.1324,-97.0345,0.0,5.3,207.0,6.6,'1111122,1111122,1111122' 
TCOON,ioos:station:TCOON:146:1,2015-05-07T10:30:00Z,28.1324,-97.0345,0.0,4.7,198.0,5.9,'1111122,1111122,1111122' 
TCOON,ioos:station:TCOON:146:1,2015-05-07T11:30:00Z,28.1324,-97.0345,0.0,4.3,199.0,5.2,'1111122,1111122,1111122' 
TCOON,ioos:station:TCOON:146:1,2015-05-07T12:30:00Z,28.1324,-97.0345,0.0,4.6,202.0,5.7,'1111122,1111122,1111122' 
TCOON,ioos:station:TCOON:146:1,2015-05-07T13:30:00Z,28.1324,-97.0345,0.0,4.6,202.0,5.8,'1111122,1111122,1111122' 
TCOON,ioos:station:TCOON:146:1,2015-05-07T14:30:00Z,28.1324,-97.0345,0.0,5.4,202.0,6.9,'1111122,1111122,1111122' 
TCOON,ioos:station:TCOON:146:1,2015-05-07T15:30:00Z,28.1324,-97.0345,0.0,5.8,206.0,6.9,'1111122,1111122,1111122' 
TCOON,ioos:station:TCOON:146:1,2015-05-07T16:30:00Z,28.1324,-97.0345,0.0,5.9,208.0,7.2,'1111122,1111122,1111122' 
TCOON,ioos:station:TCOON:146:1,2015-05-07T17:30:00Z,28.1324,-97.0345,0.0,5.7,212.0,7.3,'1111122,1111122,1111122' 
TCOON,ioos:station:TCOON:146:1,2015-05-07T18:30:00Z,28.1324,-97.0345,0.0,5.6,212.0,6.8,'1111122,1111122,1111122' 
TCOON,ioos:station:TCOON:146:1,2015-05-07T20:30:00Z,28.1324,-97.0345,0.0,5.1,204.0,6.3,'1111122,1111122,1111122' 
TCOON,ioos:station:TCOON:146:1,2015-05-07T21:30:00Z,28.1324,-97.0345,0.0,4.6,199.0,6.1,'1111122,1111122,1111122' 
TCOON,ioos:station:TCOON:146:1,2015-05-07T22:30:00Z,28.1324,-97.0345,0.0,4.9,200.0,6.3,'1111122,1111122,1111122' 
TCOON,ioos:station:TCOON:146:1,2015-05-07T23:30:00Z,28.1324,-97.0345,0.0,5.2,196.0,6.6,'1111122,1111122,1111122' 
TCOON,ioos:station:TCOON:146:1,2015-05-08T00:30:00Z,28.1324,-97.0345,0.0,4.9,202.0,6.2,'1111122,1111122,1111122' 
TCOON,ioos:station:TCOON:146:1,2015-05-08T01:30:00Z,28.1324,-97.0345,0.0,5.1,197.0,6.4,'1111122,1111122,1111122' 
TCOON,ioos:station:TCOON:146:1,2015-05-08T02:30:00Z,28.1324,-97.0345,0.0,5.1,203.0,6.4,'1111122,1111122,1111122' 
TCOON,ioos:station:TCOON:146:1,2015-05-08T03:30:00Z,28.1324,-97.0345,0.0,5.5,211.0,7.1,'1111122,1111122,1111122' 
TCOON,ioos:station:TCOON:146:1,2015-05-08T04:30:00Z,28.1324,-97.0345,0.0,5.2,212.0,6.6,'1111122,1111122,1111122' 
TCOON,ioos:station:TCOON:146:1,2015-05-08T05:30:00Z,28.1324,-97.0345,0.0,4.7,208.0,5.7,'1111122,1111122,1111122' 
TCOON,ioos:station:TCOON:146:1,2015-05-08T06:30:00Z,28.1324,-97.0345,0.0,4.3,198.0,5.3,'1111122,1111122,1111122' 
TCOON,ioos:station:TCOON:146:1,2015-05-08T07:30:00Z,28.1324,-97.0345,0.0,4.2,196.0,5.0,'1111122,1111122,1111122' 
TCOON,ioos:station:TCOON:146:1,2015-05-08T08:30:00Z,28.1324,-97.0345,0.0,4.5,200.0,5.9,'1111122,1111122,1111122' 
TCOON,ioos:station:TCOON:146:1,2015-05-08T09:30:00Z,28.1324,-97.0345,0.0,4.2,196.0,5.5,'1111122,1111122,1111122' 
TCOON,ioos:station:TCOON:146:1,2015-05-08T10:30:00Z,28.1324,-97.0345,0.0,4.9,215.0,5.9,'1111122,1111122,1111122' 
TCOON,ioos:station:TCOON:146:1,2015-05-08T11:30:00Z,28.1324,-97.0345,0.0,5.5,217.0,6.5,'1111122,1111122,1111122' 
TCOON,ioos:station:TCOON:146:1,2015-05-08T12:30:00Z,28.1324,-97.0345,0.0,5.2,212.0,6.3,'1111122,1111122,1111122' 
TCOON,ioos:station:TCOON:146:1,2015-05-08T13:30:00Z,28.1324,-97.0345,0.0,5.3,216.0,6.2,'1111122,1111122,1111122' 
TCOON,ioos:station:TCOON:146:1,2015-05-08T14:30:00Z,28.1324,-97.0345,0.0,5.5,221.0,6.6,'1111122,1111122,1111122' 
TCOON,ioos:station:TCOON:146:1,2015-05-08T15:30:00Z,28.1324,-97.0345,0.0,6.2,223.0,7.6,'1111122,1111122,1111122' 
TCOON,ioos:station:TCOON:146:1,2015-05-08T16:30:00Z,28.1324,-97.0345,0.0,6.0,229.0,7.2,'1111122,1111122,1111122' 
TCOON,ioos:station:TCOON:146:1,2015-05-08T17:30:00Z,28.1324,-97.0345,0.0,5.6,238.0,7.0,'1111122,1111122,1111122' 
TCOON,ioos:station:TCOON:146:1,2015-05-08T18:30:00Z,28.1324,-97.0345,0.0,5.9,227.0,7.1,'1111122,1111122,1111122' 
TCOON,ioos:station:TCOON:146:1,2015-05-08T19:30:00Z,28.1324,-97.0345,0.0,5.7,228.0,6.8,'1111122,1111122,1111122' 
TCOON,ioos:station:TCOON:146:1,2015-05-08T21:30:00Z,28.1324,-97.0345,0.0,4.5,222.0,5.3,'1111122,1111122,1111122' 
TCOON,ioos:station:TCOON:146:1,2015-05-09T00:30:00Z,28.1324,-97.0345,0.0,5.6,206.0,7.3,'1111122,1111122,1111122' 
TCOON,ioos:station:TCOON:146:1,2015-05-09T02:30:00Z,28.1324,-97.0345,0.0,5.3,199.0,7.6,'1111122,1111122,1111122' 
TCOON,ioos:station:TCOON:146:1,2015-05-09T04:30:00Z,28.1324,-97.0345,0.0,6.5,214.0,7.8,'1111122,1111122,1111122' 
TCOON,ioos:station:TCOON:146:1,2015-05-09T05:30:00Z,28.1324,-97.0345,0.0,5.8,211.0,7.1,'1111122,1111122,1111122' 
TCOON,ioos:station:TCOON:146:1,2015-05-09T06:30:00Z,28.1324,-97.0345,0.0,7.0,213.0,8.7,'1111122,1111122,1111122' 
TCOON,ioos:station:TCOON:146:1,2015-05-09T07:30:00Z,28.1324,-97.0345,0.0,7.0,220.0,8.5,'1111122,1111122,1111122' 
TCOON,ioos:station:TCOON:146:1,2015-05-09T08:30:00Z,28.1324,-97.0345,0.0,6.2,227.0,7.7,'1111122,1111122,1111122' 
TCOON,ioos:station:TCOON:146:1,2015-05-09T09:30:00Z,28.1324,-97.0345,0.0,5.2,224.0,6.0,'1111122,1111122,1111122' 
TCOON,ioos:station:TCOON:146:1,2015-05-09T10:30:00Z,28.1324,-97.0345,0.0,5.8,225.0,7.3,'1111122,1111122,1111122' 
TCOON,ioos:station:TCOON:146:1,2015-05-09T11:30:00Z,28.1324,-97.0345,0.0,6.0,221.0,7.6,'1111122,1111122,1111122' 
TCOON,ioos:station:TCOON:146:1,2015-05-09T12:30:00Z,28.1324,-97.0345,0.0,6.1,224.0,7.2,'1111122,1111122,1111122' 
TCOON,ioos:station:TCOON:146:1,2015-05-09T13:30:00Z,28.1324,-97.0345,0.0,6.9,222.0,8.5,'1111122,1111122,1111122' 
TCOON,ioos:station:TCOON:146:1,2015-05-09T14:30:00Z,28.1324,-97.0345,0.0,6.6,225.0,8.0,'1111122,1111122,1111122' 
TCOON,ioos:station:TCOON:146:1,2015-05-09T15:30:00Z,28.1324,-97.0345,0.0,6.6,227.0,8.5,'1111122,1111122,1111122' 
TCOON,ioos:station:TCOON:146:1,2015-05-09T16:30:00Z,28.1324,-97.0345,0.0,7.4,229.0,9.2,'1111122,1111122,1111122' 
TCOON,ioos:station:TCOON:146:1,2015-05-09T17:30:00Z,28.1324,-97.0345,0.0,7.6,223.0,9.8,'1111122,1111122,1111122' 
TCOON,ioos:station:TCOON:146:1,2015-05-09T21:30:00Z,28.1324,-97.0345,0.0,7.9,215.0,9.1,'1111122,1111122,1111122' 
TCOON,ioos:station:TCOON:146:1,2015-05-09T22:30:00Z,28.1324,-97.0345,0.0,7.0,213.0,8.9,'1111122,1111122,1111122' 
TCOON,ioos:station:TCOON:146:1,2015-05-10T00:30:00Z,28.1324,-97.0345,0.0,6.3,203.0,8.2,'1111122,1111122,1111122' 
TCOON,ioos:station:TCOON:146:1,2015-05-10T01:30:00Z,28.1324,-97.0345,0.0,7.1,212.0,9.1,'1111122,1111122,1111122' 
TCOON,ioos:station:TCOON:146:1,2015-05-10T02:30:00Z,28.1324,-97.0345,0.0,7.4,214.0,9.4,'1111122,1111122,1111122' 
TCOON,ioos:station:TCOON:146:1,2015-05-10T03:30:00Z,28.1324,-97.0345,0.0,7.2,219.0,8.4,'1111122,1111122,1111122' 
TCOON,ioos:station:TCOON:146:1,2015-05-10T04:30:00Z,28.1324,-97.0345,0.0,6.4,222.0,7.5,'1111122,1111122,1111122' 
TCOON,ioos:station:TCOON:146:1,2015-05-10T05:30:00Z,28.1324,-97.0345,0.0,7.1,222.0,8.8,'1111122,1111122,1111122' 
TCOON,ioos:station:TCOON:146:1,2015-05-10T06:30:00Z,28.1324,-97.0345,0.0,7.1,225.0,8.4,'1111122,1111122,1111122' 
TCOON,ioos:station:TCOON:146:1,2015-05-10T07:30:00Z,28.1324,-97.0345,0.0,7.4,219.0,9.2,'1111122,1111122,1111122' 
TCOON,ioos:station:TCOON:146:1,2015-05-10T08:30:00Z,28.1324,-97.0345,0.0,7.6,223.0,9.1,'1111122,1111122,1111122' 
TCOON,ioos:station:TCOON:146:1,2015-05-10T09:30:00Z,28.1324,-97.0345,0.0,7.9,223.0,9.7,'1111122,1111122,1111122' 
TCOON,ioos:station:TCOON:146:1,2015-05-10T10:30:00Z,28.1324,-97.0345,0.0,8.6,221.0,10.4,'1111122,1111122,1111122' 
TCOON,ioos:station:TCOON:146:1,2015-05-10T11:30:00Z,28.1324,-97.0345,0.0,8.2,212.0,10.2,'1111122,1111122,1111122' 
TCOON,ioos:station:TCOON:146:1,2015-05-10T12:30:00Z,28.1324,-97.0345,0.0,7.4,223.0,8.8,'1111122,1111122,1111122' 
TCOON,ioos:station:TCOON:146:1,2015-05-10T13:30:00Z,28.1324,-97.0345,0.0,7.0,223.0,8.5,'1111122,1111122,1111122' 
TCOON,ioos:station:TCOON:146:1,2015-05-10T14:30:00Z,28.1324,-97.0345,0.0,7.2,220.0,9.3,'1111122,1111122,1111122' 
TCOON,ioos:station:TCOON:146:1,2015-05-10T16:30:00Z,28.1324,-97.0345,0.0,6.9,224.0,8.4,'1111122,1111122,1111122' 
TCOON,ioos:station:TCOON:146:1,2015-05-10T17:30:00Z,28.1324,-97.0345,0.0,6.6,225.0,7.8,'1111122,1111122,1111122' 
TCOON,ioos:station:TCOON:146:1,2015-05-10T19:30:00Z,28.1324,-97.0345,0.0,5.5,224.0,6.6,'1111122,1111122,1111122' 
TCOON,ioos:station:TCOON:146:1,2015-05-10T20:30:00Z,28.1324,-97.0345,0.0,4.9,213.0,6.1,'1111122,1111122,1111122' 
TCOON,ioos:station:TCOON:146:1,2015-05-10T21:30:00Z,28.1324,-97.0345,0.0,5.5,212.0,7.1,'1111122,1111122,1111122' 
TCOON,ioos:station:TCOON:146:1,2015-05-11T01:30:00Z,28.1324,-97.0345,0.0,7.1,225.0,8.7,'1111122,1111122,1111122' 
TCOON,ioos:station:TCOON:146:1,2015-05-11T02:30:00Z,28.1324,-97.0345,0.0,6.3,228.0,7.5,'1111122,1111122,1111122' 
TCOON,ioos:station:TCOON:146:1,2015-05-11T03:30:00Z,28.1324,-97.0345,0.0,6.3,226.0,7.9,'1111122,1111122,1111122' 
TCOON,ioos:station:TCOON:146:1,2015-05-11T04:30:00Z,28.1324,-97.0345,0.0,6.9,226.0,8.5,'1111122,1111122,1111122' 
TCOON,ioos:station:TCOON:146:1,2015-05-11T05:30:00Z,28.1324,-97.0345,0.0,6.4,230.0,8.0,'1111122,1111122,1111122' 
TCOON,ioos:station:TCOON:146:1,2015-05-11T08:30:00Z,28.1324,-97.0345,0.0,6.0,229.0,7.1,'1111122,1111122,1111122' 
TCOON,ioos:station:TCOON:146:1,2015-05-11T09:30:00Z,28.1324,-97.0345,0.0,5.5,226.0,6.5,'1111122,1111122,1111122' 
TCOON,ioos:station:TCOON:146:1,2015-05-11T13:30:00Z,28.1324,-97.0345,0.0,4.0,210.0,4.7,'1111122,1111122,1111122' 
TCOON,ioos:station:TCOON:146:1,2015-05-11T15:30:00Z,28.1324,-97.0345,0.0,3.9,186.0,4.7,'1111122,1111122,1111122' 
TCOON,ioos:station:TCOON:146:1,2015-05-11T16:30:00Z,28.1324,-97.0345,0.0,4.2,179.0,5.1,'1111122,1111122,1111122' 
TCOON,ioos:station:TCOON:146:1,2015-05-11T18:30:00Z,28.1324,-97.0345,0.0,4.6,171.0,5.2,'1111122,1111122,1111122' 
TCOON,ioos:station:TCOON:146:1,2015-05-11T23:30:00Z,28.1324,-97.0345,0.0,5.8,157.0,7.1,'1111122,1111122,1111122' 
TCOON,ioos:station:TCOON:146:1,2015-05-12T00:30:00Z,28.1324,-97.0345,0.0,4.8,139.0,6.0,'1111122,1111122,1111122' 
TCOON,ioos:station:TCOON:146:1,2015-05-12T01:30:00Z,28.1324,-97.0345,0.0,6.9,137.0,8.3,'1111122,1111122,1111122' 
TCOON,ioos:station:TCOON:146:1,2015-05-12T02:30:00Z,28.1324,-97.0345,0.0,6.0,151.0,7.4,'1111122,1111122,1111122' 
TCOON,ioos:station:TCOON:146:1,2015-05-12T03:30:00Z,28.1324,-97.0345,0.0,6.5,149.0,7.9,'1111122,1111122,1111122' 
TCOON,ioos:station:TCOON:146:1,2015-05-12T04:30:00Z,28.1324,-97.0345,0.0,6.9,144.0,9.2,'1111122,1111122,1111122' 
TCOON,ioos:station:TCOON:146:1,2015-05-12T05:30:00Z,28.1324,-97.0345,0.0,6.5,139.0,8.2,'1111122,1111122,1111122' 
TCOON,ioos:station:TCOON:146:1,2015-05-12T08:30:00Z,28.1324,-97.0345,0.0,4.4,124.0,6.2,'1111122,1111122,1111122' 
TCOON,ioos:station:TCOON:146:1,2015-05-12T09:30:00Z,28.1324,-97.0345,0.0,8.6,83.0,10.8,'1111122,1111122,1111122' 
TCOON,ioos:station:TCOON:146:1,2015-05-12T11:30:00Z,28.1324,-97.0345,0.0,6.7,103.0,8.1,'1111122,1111122,1111122' 
TCOON,ioos:station:TCOON:146:1,2015-05-12T12:30:00Z,28.1324,-97.0345,0.0,10.8,143.0,19.4,'1111122,1111122,1111122' 
TCOON,ioos:station:TCOON:146:1,2015-05-12T14:30:00Z,28.1324,-97.0345,0.0,7.9,184.0,10.1,'1111122,1111122,1111122' 
TCOON,ioos:station:TCOON:146:1,2015-05-12T15:30:00Z,28.1324,-97.0345,0.0,5.1,196.0,6.5,'1111122,1111122,1111122' 